SCP
0 0 0 0 0 0 -0 0 0 0 0 0 0 0 0 0 0 -0 0 0 0 0 0 0 0 0 0 0 0 0 0 0
0 0 0 0 0 0 0 0 0 0 0 0 0 0 0 0 0 -0 0 0 0 0 0 0 0 0 1 1 0 0 0 0
0 0 0 0 0 0 0 0 0 0 0 0 0 0 0 0 0 0 0 0 0 0 0 0 0 0 0 0 0 0 0 1
0 0 0 0 0 0 0 0 0 0 0 0 0 0 0 0 0 0 0 0 0 0 0 0 0 0 0 0 0 0 0 0
0 0 0 0 0 0 0 0 0 0 0 0 0 0 0 0 0 0 0 0 0 0 0 0 0 0 0 0 0 0 0 0
0 0 0 0 0 0 0 0 0 0 0 0 0 0 0 0 0 0 0 0 0 0 0 0 0 0 0 0 0 0 0 0
0 0 0 0 0 0 0 -0 -0 0 0 0 0 0 0 0 0 0 0 0 0 0 0 0 0 0 0 0 0 0 0 0
0 0 0 0 0 0 0 0 -0 0 0 0 0 0 0 0 0 0 0 0 0 0 0 0 0 0 0 0 0 0 0 0
0 0 0 0 0 0 0 0 0 0 0 0 0 0 0 0 0 0 0 0 0 0 0 0 0 0 0 0 0 0 0 0
0 0 0 0 0 0 0 0 0 1 0 0 0 0 0 0 0 0 0 0 0 0 0 0 0 0 0 -0 0 0 0 0
0 0 0 0 0 0 0 0 0 0 0 0 0 0 0 0 0 0 0 0 0 0 0 0 0 0 0 0 0 0 0 0
0 0 0 0 0 0 0 1 0 0 0 0 0 0 0 0 0 0 0 0 0 0 0 0 0 0 0 0 0 0 0 0
0 0 0 0 0 0 0 0 0 0 0 0 0 0 0 0 0 0 0 0 0 0 0 0 0 0 0 0 0 0 0 0
0 0 0 0 0 0 0 0 0 0 0 0 0 0 0 0 0 0 0 0 0 0 0 0 0 0 0 0 0 0 0 0
0 0 0 0 0 0 0 0 0 0 0 0 0 0 0 0 0 0 0 0 0 0 0 0 0 0 0 0 0 0 0 0
0 0 0 0 0 0 0 0 0 0 0 0 0 0 0 0 0 0 0 0 0 0 0 0 0 0 0 0 0 0 0 0
0 0 0 0 0 0 0 0 0 0 0 0 0 0 0 0 0 0 0 0 0 0 0 0 0 0 0 0 0 0 0 0
0 0 0 0 0 0 0 0 0 0 0 0 0 0 0 0 0 0 0 0 0 0 0 0 0 0 0 0 0 0 0 0
0 0 0 0 0 0 0 0 0 0 0 0 0 0 0 0 0 0 0 0 0 0 0 0 0 0 0 0 0 0 0 0
Wind_Speed_500mb
16 14 19 16 16 19 8 14 6 11 9 14 9 14 23 24 29 10 18 43 52 38 64 68 63 67 51 46 45 42 45 49
22 10 1 3 7 10 3 7 7 8 6 15 21 25 25 22 40 27 21 31 36 43 41 50 44 72 65 50 52 45 42 43
15 8 7 4 8 3 2 2 9 11 1 15 19 20 25 35 40 48 38 37 38 37 35 32 38 47 64 57 52 48 45 43
14 8 13 12 12 9 8 10 5 10 2 2 28 32 42 36 45 52 37 38 35 30 28 20 27 36 54 39 30 34 41 46
12 3 9 10 15 14 6 3 10 7 8 11 40 33 36 38 42 46 44 38 39 40 44 34 38 39 58 54 35 13 5 39
6 7 7 9 11 15 4 8 10 5 26 29 31 30 44 36 41 44 52 53 52 48 40 29 24 21 28 24 29 37 60 31
18 15 17 18 18 19 3 22 13 14 20 30 31 33 48 48 46 47 46 49 57 57 54 45 31 19 10 21 21 21 41 39
15 12 12 17 12 12 12 26 20 20 31 28 44 55 53 43 45 47 47 46 45 49 48 46 49 47 39 29 22 17 26 30
11 21 15 11 16 14 10 16 27 24 23 35 34 40 49 43 46 49 49 45 45 43 40 42 38 37 43 42 40 29 19 18
6 14 5 6 19 18 5 23 36 42 33 42 44 52 55 56 53 46 41 40 35 36 37 33 39 43 34 32 30 34 33 29
5 4 15 8 10 10 10 19 41 39 37 52 65 68 47 48 46 41 36 33 30 24 25 34 27 32 30 23 15 20 25 24
8 3 11 1 16 37 10 12 47 66 58 56 42 16 10 38 38 35 27 25 22 21 16 13 16 19 19 13 5 11 13 13
9 7 8 1 10 24 9 6 50 62 58 48 13 25 54 43 35 28 20 17 16 15 18 13 4 3 6 2 6 10 13 11
4 1 4 16 10 9 7 47 52 58 70 65 69 61 48 36 30 24 20 22 18 15 11 5 2 3 4 10 13 16 14 15
6 5 13 35 30 28 34 44 50 57 55 59 52 44 36 32 26 23 21 16 6 8 8 5 10 8 4 9 17 20 22 20
8 10 20 27 34 27 17 27 26 31 35 32 40 39 36 34 26 19 14 12 11 6 4 8 12 13 12 19 20 20 20 15
8 7 12 14 13 14 21 22 18 19 25 24 31 31 34 29 20 19 14 7 1 1 5 7 16 15 17 18 20 22 22 16
6 10 8 13 28 26 25 21 22 22 24 22 24 28 24 24 19 16 9 7 3 2 4 7 10 16 14 21 22 24 27 29
7 19 19 5 32 38 35 27 25 21 24 24 18 23 21 24 19 13 12 8 3 6 7 9 6 8 14 17 23 29 31 34
Wind_Direction_500mb
172 195 225 286 231 230 293 274 150 110 51 41 108 97 105 135 174 268 245 214 201 195 211 207 200 205 206 200 196 195 196 201
188 162 334 110 317 3 353 283 72 91 150 155 170 141 106 92 96 69 84 183 206 222 208 198 194 194 204 208 204 198 202 202
135 164 133 317 300 293 85 253 140 148 98 347 122 108 99 90 88 78 80 99 147 172 173 191 180 181 191 199 205 208 217 217
236 275 182 245 251 224 142 300 87 112 79 346 90 97 90 83 89 89 96 98 115 140 152 212 214 186 194 194 210 193 218 218
301 156 274 236 262 271 291 64 177 93 150 148 92 95 99 92 100 96 99 104 109 130 141 131 173 218 213 232 237 173 288 221
216 262 321 219 253 271 242 61 71 13 132 146 130 127 113 103 104 98 93 93 98 95 105 133 163 181 205 217 212 219 223 259
250 261 343 342 215 249 231 136 133 180 136 148 140 132 120 117 112 107 102 95 89 91 88 91 103 109 194 216 193 202 218 246
325 337 347 342 305 213 8 108 120 93 103 125 122 118 112 114 114 106 102 98 102 89 83 79 76 75 75 89 119 157 204 236
285 321 330 351 352 46 18 89 129 141 152 143 140 132 127 128 108 100 102 100 94 95 97 91 77 71 66 67 77 100 135 155
316 343 306 298 20 353 78 110 106 114 141 144 140 128 125 123 119 112 105 101 101 102 96 88 106 87 77 71 70 79 82 86
166 313 296 348 23 6 57 101 125 131 144 120 115 110 110 121 115 118 113 111 103 102 110 98 99 103 106 86 82 85 82 75
345 5 207 304 12 349 342 123 127 128 129 131 130 115 137 124 125 120 128 127 115 101 107 120 99 109 114 79 62 58 63 59
264 245 93 280 23 327 65 260 148 137 142 143 104 151 144 138 125 123 118 118 126 110 94 78 63 113 92 139 17 341 331 337
274 7 79 0 23 67 127 66 99 111 121 113 119 124 129 130 124 123 122 118 120 121 110 104 146 254 282 303 308 300 307 316
100 129 64 76 92 81 84 83 92 104 112 121 125 127 130 128 141 147 138 125 139 151 151 232 285 304 304 296 294 299 294 302
71 18 95 85 92 97 93 90 92 113 113 126 134 135 134 136 136 135 140 132 92 73 360 347 320 326 312 301 308 310 304 305
13 146 114 126 116 122 116 127 125 124 125 132 133 140 143 140 135 131 128 108 147 328 28 325 329 327 331 320 329 331 330 330
209 298 3 188 168 160 147 150 150 146 145 133 149 140 149 153 161 163 146 152 155 219 231 278 303 323 346 349 353 351 346 343
24 8 1 303 196 179 169 167 165 168 164 161 156 173 171 175 190 191 171 247 237 316 303 315 345 10 335 351 358 5 6 359
Wind_Speed_850mb
16 14 19 16 16 19 8 14 6 11 9 14 9 14 23 24 29 10 18 43 52 38 64 68 63 67 51 46 45 42 45 49
22 10 1 3 7 10 3 7 7 8 6 15 21 25 25 22 40 27 21 31 36 43 41 50 44 72 65 50 52 45 42 43
15 8 7 4 8 3 2 2 9 11 1 15 19 20 25 35 40 48 38 37 38 37 35 32 38 47 64 57 52 48 45 43
14 8 13 12 12 9 8 10 5 10 2 2 28 32 42 36 45 52 37 38 35 30 28 20 27 36 54 39 30 34 41 46
12 3 9 10 15 14 6 3 10 7 8 11 40 33 36 38 42 46 44 38 39 40 44 34 38 39 58 54 35 13 5 39
6 7 7 9 11 15 4 8 10 5 26 29 31 30 44 36 41 44 52 53 52 48 40 29 24 21 28 24 29 37 60 31
18 15 17 18 18 19 3 22 13 14 20 30 31 33 48 48 46 47 46 49 57 57 54 45 31 19 10 21 21 21 41 39
15 12 12 17 12 12 12 26 20 20 31 28 44 55 53 43 45 47 47 46 45 49 48 46 49 47 39 29 22 17 26 30
11 21 15 11 16 14 10 16 27 24 23 35 34 40 49 43 46 49 49 45 45 43 40 42 38 37 43 42 40 29 19 18
6 14 5 6 19 18 5 23 36 42 33 42 44 52 55 56 53 46 41 40 35 36 37 33 39 43 34 32 30 34 33 29
5 4 15 8 10 10 10 19 41 39 37 52 65 68 47 48 46 41 36 33 30 24 25 34 27 32 30 23 15 20 25 24
8 3 11 1 16 37 10 12 47 66 58 56 42 16 10 38 38 35 27 25 22 21 16 13 16 19 19 13 5 11 13 13
9 7 8 1 10 24 9 6 50 62 58 48 13 25 54 43 35 28 20 17 16 15 18 13 4 3 6 2 6 10 13 11
4 1 4 16 10 9 7 47 52 58 70 65 69 61 48 36 30 24 20 22 18 15 11 5 2 3 4 10 13 16 14 15
6 5 13 35 30 28 34 44 50 57 55 59 52 44 36 32 26 23 21 16 6 8 8 5 10 8 4 9 17 20 22 20
8 10 20 27 34 27 17 27 26 31 35 32 40 39 36 34 26 19 14 12 11 6 4 8 12 13 12 19 20 20 20 15
8 7 12 14 13 14 21 22 18 19 25 24 31 31 34 29 20 19 14 7 1 1 5 7 16 15 17 18 20 22 22 16
6 10 8 13 28 26 25 21 22 22 24 22 24 28 24 24 19 16 9 7 3 2 4 7 10 16 14 21 22 24 27 29
7 19 19 5 32 38 35 27 25 21 24 24 18 23 21 24 19 13 12 8 3 6 7 9 6 8 14 17 23 29 31 34
Wind_Direction_850mb
172 195 225 286 231 230 293 274 150 110 51 41 108 97 105 135 174 268 245 214 201 195 211 207 200 205 206 200 196 195 196 201
188 162 334 110 317 3 353 283 72 91 150 155 170 141 106 92 96 69 84 183 206 222 208 198 194 194 204 208 204 198 202 202
135 164 133 317 300 293 85 253 140 148 98 347 122 108 99 90 88 78 80 99 147 172 173 191 180 181 191 199 205 208 217 217
236 275 182 245 251 224 142 300 87 112 79 346 90 97 90 83 89 89 96 98 115 140 152 212 214 186 194 194 210 193 218 218
301 156 274 236 262 271 291 64 177 93 150 148 92 95 99 92 100 96 99 104 109 130 141 131 173 218 213 232 237 173 288 221
216 262 321 219 253 271 242 61 71 13 132 146 130 127 113 103 104 98 93 93 98 95 105 133 163 181 205 217 212 219 223 259
250 261 343 342 215 249 231 136 133 180 136 148 140 132 120 117 112 107 102 95 89 91 88 91 103 109 194 216 193 202 218 246
325 337 347 342 305 213 8 108 120 93 103 125 122 118 112 114 114 106 102 98 102 89 83 79 76 75 75 89 119 157 204 236
285 321 330 351 352 46 18 89 129 141 152 143 140 132 127 128 108 100 102 100 94 95 97 91 77 71 66 67 77 100 135 155
316 343 306 298 20 353 78 110 106 114 141 144 140 128 125 123 119 112 105 101 101 102 96 88 106 87 77 71 70 79 82 86
166 313 296 348 23 6 57 101 125 131 144 120 115 110 110 121 115 118 113 111 103 102 110 98 99 103 106 86 82 85 82 75
345 5 207 304 12 349 342 123 127 128 129 131 130 115 137 124 125 120 128 127 115 101 107 120 99 109 114 79 62 58 63 59
264 245 93 280 23 327 65 260 148 137 142 143 104 151 144 138 125 123 118 118 126 110 94 78 63 113 92 139 17 341 331 337
274 7 79 0 23 67 127 66 99 111 121 113 119 124 129 130 124 123 122 118 120 121 110 104 146 254 282 303 308 300 307 316
100 129 64 76 92 81 84 83 92 104 112 121 125 127 130 128 141 147 138 125 139 151 151 232 285 304 304 296 294 299 294 302
71 18 95 85 92 97 93 90 92 113 113 126 134 135 134 136 136 135 140 132 92 73 360 347 320 326 312 301 308 310 304 305
13 146 114 126 116 122 116 127 125 124 125 132 133 140 143 140 135 131 128 108 147 328 28 325 329 327 331 320 329 331 330 330
209 298 3 188 168 160 147 150 150 146 145 133 149 140 149 153 161 163 146 152 155 219 231 278 303 323 346 349 353 351 346 343
24 8 1 303 196 179 169 167 165 168 164 161 156 173 171 175 190 191 171 247 237 316 303 315 345 10 335 351 358 5 6 359